Regional Weather Roundup
Issued by NWS Northern Indiana

Home | Current Version | Previous Version | Graphics & Text | Print | Product List | Glossary On
Versions: 1 2 3 4 5 6 7 8 9 10 11 12 13 14 15 16 17 18 19 20 21 22 23 24 25 26 27 28 29 30 31 32 33 34 35 36 37 38 39 40 41 42 43 44 45 46 47 48 49 50
000
ASUS43 KIWX 090000
RWRIWX

KIWX WEATHER ROUNDUP
NATIONAL WEATHER SERVICE NORTHERN INDIANA
700 PM EST MON FEB 08 2016

NOTE: "FAIR" INDICATES FEW OR NO CLOUDS BELOW 12,000 FEET WITH NO
SIGNIFICANT WEATHER AND/OR OBSTRUCTIONS TO VISIBILITY.

* THESE STATIONS ARE NOT UNDER NWS QUALITY CONTROL. THEY ALSO MAY NOT
  REPORT WEATHER SUCH AS PRECIPITATION OR FOG.

INZ001>027-090100-
NORTHERN INDIANA

CITY           SKY/WX    TMP DP  RH WIND       PRES   REMARKS
GARY*          CLOUDY    30  21  69 W12       29.74R WCI  21
SOUTH BEND     LGT SNOW  28  25  88 W10       29.70R FOG     WCI  19
6HR MIN TEMP:  28; 6HR MAX TEMP:  32; 6HR PCP:  0.01;

ELKHART*         N/A     30  27  86 W9        29.69R WCI  22
GOSHEN         LGT SNOW  30  27  88 W12       29.68S FOG     WCI  20
6HR MIN TEMP:  29; 6HR MAX TEMP:  37; 6HR PCP:  0.01;

ANGOLA*        CLOUDY    30  28  93 NW8       29.64R WCI  23
FORT WAYNE     LGT SNOW  30  28  92 W15       29.68R FOG     WCI  19
6HR MIN TEMP:  30; 6HR MAX TEMP:  38; 6HR PCP: TRACE;


$$
INZ028>050-090100-
CENTRAL INDIANA

CITY           SKY/WX    TMP DP  RH WIND       PRES   REMARKS
LAFAYETTE      CLOUDY    23  18  81 W15       29.78R WCI  10
6HR MIN TEMP:  23; 6HR MAX TEMP:  28; 6HR PCP: TRACE;

KOKOMO*        CLOUDY    27  19  74 W22       29.73R WCI  12
6HR MIN TEMP:  27; 6HR MAX TEMP:  36;

MUNCIE*        FLURRIES  28  22  78 NW15G22   29.71R WCI  16
6HR MIN TEMP:  28; 6HR MAX TEMP:  40; 6HR PCP: TRACE;

INDIANAPOLIS   LGT SNOW  25  19  78 W18       29.75R WCI  11
6HR MIN TEMP:  25; 6HR MAX TEMP:  38; 6HR PCP: TRACE;


$$
MIZ043>046-050>051-056>058-064>065-071>073-077>080-090100-
SOUTHWEST LOWER MICHIGAN

CITY           SKY/WX    TMP DP  RH WIND       PRES   REMARKS
BATTLE CREEK   CLOUDY    32  30  92 SW8       29.63R WCI  25
6HR MIN TEMP:  32; 6HR MAX TEMP:  37; 6HR PCP: TRACE;

BENTON HARBOR  LGT SNOW  30  27  88 W10       29.70R FOG     WCI  21
6HR MIN TEMP:  30; 6HR MAX TEMP:  34; 6HR PCP:  0.07;

COLDWATER*     FLURRIES  32  30  91 W12       29.64R WCI  23
6HR MIN TEMP:  32; 6HR MAX TEMP:  37;

HILLSDALE*     PTCLDY    32  28  85 W10       29.61R WCI  24
6HR MIN TEMP:  32; 6HR MAX TEMP:  39;

HOLLAND        LGT SNOW  33  30  88 W8        29.66R FOG     WCI  26
6HR MIN TEMP:  33; 6HR MAX TEMP:  39; 6HR PCP:  0.01;

GRAND RAPIDS   MOCLDY    34  30  85 NW7       29.62R WCI  28
6HR MIN TEMP:  34; 6HR MAX TEMP:  41;

KALAMAZOO      FLURRIES  33  29  85 W12       29.64R WCI  24
6HR MIN TEMP:  33; 6HR MAX TEMP:  38; 6HR PCP:  0.01;

STURGIS*       CLOUDY    31  28  91 W7        29.65R WCI  24
6HR MIN TEMP:  31; 6HR MAX TEMP:  36;

THREE RIVERS*  LGT SNOW  32  30  92 W10       29.66R WCI  24
6HR MIN TEMP:  32; 6HR MAX TEMP:  37;


$$
OHZ001>008-015>018-024>025-090100-
NORTHWEST OHIO

CITY           SKY/WX    TMP DP  RH WIND       PRES   REMARKS
DEFIANCE       PTCLDY    35  27  72 VRB7      29.65R WCI  29
6HR MIN TEMP:  35; 6HR MAX TEMP:  42;

FINDLAY        PTCLDY    33  25  72 W6        29.62R WCI  28
6HR MIN TEMP:  33; 6HR MAX TEMP:  43; 6HR PCP:  0.01;

TOLEDO EXPRESS CLOUDY    35  25  66 W8        29.61S WCI  29
6HR MIN TEMP:  35; 6HR MAX TEMP:  44; 6HR PCP:  0.01;

TOLEDO METCALF CLOUDY    37  28  70 W13       29.62R
6HR MIN TEMP:  37; 6HR MAX TEMP:  43; 6HR PCP:  0.01;

LIMA           PTCLDY    34  28  79 W12       29.62R WCI  25
6HR MIN TEMP:  34; 6HR MAX TEMP:  41; 6HR PCP: TRACE;


$$
AND FOR LAKE MICHIGAN COASTAL AND OPEN LAKE BUOY OBSERVATIONS

STATION/POSITION TEMP    WIND        PRES    VSBY  WAVE
                 AIR SEA DIR/SP/G                  HT/PER
                 (F)     (DEG/KT/KT) (MB)    (MI)  (FT/S)
CALUMET HARBOR    28     280/  5/ 12 1006.2R
MICHIGAN CITY     29     240/ 17/ 19   N/A
BURNS HARBOR      29     290/ 12/ 14 1007.1R
SAINT JOSEPH      31     260/ 14/ 16 1006.1R

$$
&&



USA.gov is the U.S. government's official web portal to all federal, state and local government web resources and services.